Weather History for North Las Vegas, NV

Change the Weather History Date:

Monday, January 9, 2012

  Actual Average Record
Temperature  
Mean Temperature 50 °F -  
Max Temperature 57 °F 57 °F 70 °F (1953)
Min Temperature 42 °F 34 °F 18 °F (1961)
Degree Days  
Heating Degree Days 16    
Moisture  
Dew Point 22 °F    
Average Humidity 35    
Maximum Humidity 51    
Minimum Humidity 24    
Precipitation  
Precipitation 0.00 in - - ()
Sea Level Pressure  
Sea Level Pressure 30.33 in    
Wind  
Wind Speed 3 mph (West)    
Max Wind Speed 8 mph    
Max Gust Speed -    
Visibility 10 miles    
Events      
Averages and records for this station are not official NWS values.
T = Trace of Precipitation, MM = Missing Value Source: NWS Daily Summary

Daily Weather History Graph

Daily Weather History Graph

Search for Another Location

Airport:

Trip Planner

Search our weather history database for the weather conditions in past years. The results will help you decide how hot, cold, wet, or windy it might be!

Date:

Astronomy

Jan. 09, 2012 Rise Set
Actual Time 6:52 AM PST 4:43 PM PST
Civil Twilight 6:24 AM PST 5:11 PM PST
Nautical Twilight 5:52 AM PST 5:43 PM PST
Astronomical Twilight 5:21 AM PST 6:14 PM PST
Moon 5:32 PM PST (1/9) 6:57 AM PST (1/9)
Length of Visible Light 10h 47m
Length of Day
9h 51m
Full, 100% of the Moon is Illuminated
Jan 9
Full
Jan 16
Last Quarter
Jan 22
New
Jan 30
First Quarter
Feb 7
Full

Hourly Weather History & Observations

Time (PST) Temp. Windchill Dew Point Humidity Pressure Visibility Wind Dir Wind Speed Gust Speed Precip Events Conditions
12:53 AM 46.9 °F - 12.0 °F 24% 30.35 in 10.0 mi East 4.6 mph - N/A   Clear
1:53 AM 45.0 °F - 14.0 °F 29% 30.37 in 10.0 mi Calm Calm - N/A   Clear
2:53 AM 44.1 °F 42.5 °F 15.1 °F 31% 30.36 in 10.0 mi SW 3.5 mph - N/A   Clear
3:53 AM 43.0 °F 41.3 °F 15.1 °F 32% 30.37 in 10.0 mi West 3.5 mph - N/A   Clear
4:53 AM 42.1 °F 39.2 °F 18.0 °F 38% 30.38 in 10.0 mi WNW 4.6 mph - N/A   Clear
5:53 AM 42.1 °F 37.1 °F 19.0 °F 40% 30.40 in 10.0 mi West 8.1 mph - N/A   Clear
6:53 AM 44.1 °F 40.8 °F 21.0 °F 40% 30.41 in 10.0 mi WNW 5.8 mph - N/A   Clear
7:53 AM 44.6 °F - 21.2 °F 39% 30.36 in 10.0 mi Calm Calm - N/A   Clear
8:53 AM 46.9 °F - 21.0 °F 36% 30.44 in 10.0 mi Calm Calm - N/A   Clear
9:53 AM 51.1 °F - 21.9 °F 32% 30.43 in 10.0 mi SSW 3.5 mph - N/A   Clear
10:53 AM 55.0 °F - 23.0 °F 29% 30.40 in 10.0 mi South 4.6 mph - N/A   Clear
11:53 AM 55.4 °F - 23.0 °F 29% 30.30 in 10.0 mi Calm Calm - N/A   Clear
12:53 PM 55.9 °F - 23.0 °F 28% 30.32 in 10.0 mi South 3.5 mph - N/A   Clear
1:53 PM 57.9 °F - 24.1 °F 27% 30.30 in 10.0 mi Calm Calm - N/A   Clear
2:53 PM 57.9 °F - 24.1 °F 27% 30.29 in 10.0 mi SSE 3.5 mph - N/A   Clear
3:53 PM 57.2 °F - 23.0 °F 27% 30.22 in 10.0 mi Calm Calm - N/A   Clear
4:53 PM 55.9 °F - 24.1 °F 29% 30.27 in 10.0 mi Calm Calm - N/A   Clear
5:53 PM 54.0 °F - 25.0 °F 33% 30.28 in 10.0 mi WSW 3.5 mph - N/A   Clear
6:53 PM 51.1 °F - 25.0 °F 36% 30.29 in 10.0 mi WNW 4.6 mph - N/A   Clear
7:53 PM 48.9 °F - 26.1 °F 41% 30.29 in 10.0 mi NNW 5.8 mph - N/A   Clear
8:53 PM 46.9 °F - 25.0 °F 42% 30.30 in 10.0 mi WNW 4.6 mph - N/A   Clear
9:53 PM 46.0 °F 42.5 °F 25.0 °F 44% 30.30 in 10.0 mi NNW 6.9 mph - N/A   Clear
10:53 PM 43.0 °F 40.3 °F 26.1 °F 51% 30.30 in 10.0 mi NW 4.6 mph - N/A   Clear
11:53 PM 42.1 °F 40.2 °F 25.0 °F 51% 30.28 in 10.0 mi NNW 3.5 mph - N/A   Clear